| time (UTC) | temp F | wind direction | speed knots | gust knots | rain 1hr in | rain 24hr in | rain mn in | humidity % | barometer mb |
| 20260831142000 | 79 | 203 | 6.1 | 13.9 | 0.00 | 0.00 | 0.00 | 57 | 1013.2 |
| 20260831141501 | 79 | 166 | 6.1 | 13.0 | 0.00 | 0.00 | 0.00 | 57 | 1013.1 |
| 20260831141000 | 79 | 189 | 7.8 | 13.0 | 0.00 | 0.00 | 0.00 | 57 | 1013.2 |
| 20260831140600 | 79 | 146 | 6.1 | 12.2 | 0.00 | 0.00 | 0.00 | 58 | 1013.1 |
| 20260831140100 | 79 | 193 | 5.2 | 12.2 | 0.00 | 0.00 | 0.00 | 58 | 1013.1 |
| 20260831135000 | 78 | 180 | 8.7 | 13.0 | 0.00 | 0.00 | 0.00 | 58 | 1013.0 |
| 20260831134501 | 78 | 201 | 7.8 | 12.2 | 0.00 | 0.00 | 0.00 | 59 | 1013.1 |
| 20260831134100 | 78 | 189 | 6.1 | 10.4 | 0.00 | 0.00 | 0.00 | 59 | 1013.2 |
| 20260831133559 | 78 | 193 | 6.1 | 12.2 | 0.00 | 0.00 | 0.00 | 59 | 1013.0 |
| 20260831133159 | 78 | 201 | 7.0 | 12.2 | 0.00 | 0.00 | 0.00 | 59 | 1013.0 |
| 20260831132558 | 78 | 163 | 7.0 | 12.2 | 0.00 | 0.00 | 0.00 | 59 | 1012.9 |
| 20260831132058 | 78 | 191 | 6.1 | 13.0 | 0.00 | 0.00 | 0.00 | 59 | 1012.9 |
| 20260831131559 | 78 | 161 | 6.1 | 13.0 | 0.00 | 0.00 | 0.00 | 59 | 1012.9 |
| 20260831131057 | 77 | 181 | 5.2 | 12.2 | 0.00 | 0.00 | 0.00 | 60 | 1012.7 |
| 20260831130555 | 77 | 193 | 7.0 | 12.2 | 0.00 | 0.00 | 0.00 | 60 | 1012.7 |
| 20260831130100 | 77 | 195 | 5.2 | 11.3 | 0.00 | 0.00 | 0.00 | 60 | 1012.7 |
| 20260831125051 | 77 | 154 | 5.2 | 8.7 | 0.00 | 0.00 | 0.00 | 60 | 1012.7 |
| 20260831124558 | 77 | 180 | 4.3 | 8.7 | 0.00 | 0.00 | 0.00 | 60 | 1012.6 |
| 20260831124049 | 77 | 168 | 4.3 | 7.8 | 0.00 | 0.00 | 0.00 | 60 | 1012.6 |
| 20260831123547 | 77 | 180 | 3.5 | 7.8 | 0.00 | 0.00 | 0.00 | 60 | 1012.5 |
| 20260831123047 | 77 | 160 | 3.5 | 7.0 | 0.00 | 0.00 | 0.00 | 59 | 1012.5 |
| 20260831122550 | 77 | 122 | 2.6 | 5.2 | 0.00 | 0.00 | 0.00 | 59 | 1012.5 |
| 20260831122046 | 77 | 182 | 0.9 | 4.3 | 0.00 | 0.00 | 0.00 | 59 | 1012.4 |
| 20260831121546 | 77 | 182 | 1.7 | 7.0 | 0.00 | 0.00 | 0.00 | 59 | 1012.4 |
| 20260831121045 | 78 | 184 | 2.6 | 7.8 | 0.00 | 0.00 | 0.00 | 59 | 1012.2 |
| 20260831120544 | 78 | 175 | 3.5 | 7.8 | 0.00 | 0.00 | 0.00 | 59 | 1012.2 |
| 20260831120044 | 78 | 196 | 2.6 | 7.8 | 0.00 | 0.00 | 0.00 | 58 | 1012.1 |
| 20260831115043 | 78 | 163 | 3.5 | 7.0 | 0.00 | 0.00 | 0.00 | 58 | 1012.2 |
| 20260831114542 | 78 | 181 | 3.5 | 9.6 | 0.00 | 0.00 | 0.00 | 58 | 1012.1 |
| 20260831114042 | 78 | 190 | 3.5 | 9.6 | 0.00 | 0.00 | 0.00 | 57 | 1012.2 |
| 20260831113539 | 78 | 177 | 3.5 | 7.8 | 0.00 | 0.00 | 0.00 | 57 | 1012.1 |
| 20260831113038 | 78 | 172 | 3.5 | 9.6 | 0.00 | 0.00 | 0.00 | 57 | 1012.3 |
| 20260831112537 | 78 | 202 | 5.2 | 9.6 | 0.00 | 0.00 | 0.00 | 57 | 1012.3 |
| 20260831112043 | 78 | 165 | 3.5 | 9.6 | 0.00 | 0.00 | 0.00 | 56 | 1012.1 |
| 20260831111539 | 79 | 175 | 5.2 | 10.4 | 0.00 | 0.00 | 0.00 | 56 | 1012.2 |
| 20260831111035 | 79 | 151 | 5.2 | 9.6 | 0.00 | 0.00 | 0.00 | 56 | 1012.1 |
| 20260831110535 | 79 | 194 | 6.1 | 9.6 | 0.00 | 0.00 | 0.00 | 56 | 1012.2 |
| 20260831110034 | 79 | 199 | 5.2 | 12.2 | 0.00 | 0.00 | 0.00 | 55 | 1012.2 |
| 20260831105034 | 79 | 193 | 5.2 | 12.2 | 0.00 | 0.00 | 0.00 | 55 | 1012.0 |
| 20260831104537 | 79 | 210 | 7.0 | 10.4 | 0.00 | 0.00 | 0.00 | 54 | 1011.9 |
| 20260831104032 | 79 | 189 | 3.5 | 9.6 | 0.00 | 0.00 | 0.00 | 54 | 1011.9 |
| 20260831103534 | 79 | 191 | 4.3 | 10.4 | 0.00 | 0.00 | 0.00 | 53 | 1012.0 |
| 20260831103032 | 80 | 195 | 4.3 | 10.4 | 0.00 | 0.00 | 0.00 | 53 | 1012.1 |
| 20260831102533 | 80 | 199 | 4.3 | 10.4 | 0.00 | 0.00 | 0.00 | 53 | 1012.0 |
| 20260831102033 | 80 | 181 | 6.1 | 15.6 | 0.00 | 0.00 | 0.00 | 52 | 1012.0 |
| 20260831101530 | 80 | 210 | 8.7 | 15.6 | 0.00 | 0.00 | 0.00 | 52 | 1012.0 |
| 20260831101029 | 80 | 192 | 5.2 | 11.3 | 0.00 | 0.00 | 0.00 | 51 | 1012.0 |
| 20260831100529 | 80 | 197 | 7.0 | 11.3 | 0.00 | 0.00 | 0.00 | 51 | 1012.0 |
| 20260831100029 | 80 | 187 | 6.1 | 9.6 | 0.00 | 0.00 | 0.00 | 50 | 1012.0 |
| 20260831095027 | 80 | 206 | 7.0 | 13.0 | 0.00 | 0.00 | 0.00 | 49 | 1012.0 |
| 20260831094532 | 80 | 189 | 5.2 | 11.3 | 0.00 | 0.00 | 0.00 | 48 | 1011.9 |
| 20260831094027 | 80 | 191 | 5.2 | 9.6 | 0.00 | 0.00 | 0.00 | 48 | 1012.0 |
| 20260831093526 | 81 | 189 | 4.3 | 9.6 | 0.00 | 0.00 | 0.00 | 47 | 1011.9 |
| 20260831093031 | 81 | 185 | 5.2 | 9.6 | 0.00 | 0.00 | 0.00 | 47 | 1011.9 |
| 20260831092526 | 81 | 191 | 5.2 | 9.6 | 0.00 | 0.00 | 0.00 | 47 | 1011.9 |
| 20260831092027 | 81 | 173 | 4.3 | 8.7 | 0.00 | 0.00 | 0.00 | 46 | 1011.9 |
| 20260831091524 | 81 | 172 | 3.5 | 11.3 | 0.00 | 0.00 | 0.00 | 46 | 1011.9 |
| 20260831091024 | 81 | 153 | 5.2 | 14.8 | 0.00 | 0.00 | 0.00 | 46 | 1011.8 |
| 20260831090524 | 81 | 178 | 6.1 | 14.8 | 0.00 | 0.00 | 0.00 | 45 | 1011.8 |
| 20260831090023 | 81 | 175 | 6.1 | 10.4 | 0.00 | 0.00 | 0.00 | 44 | 1011.9 |
| 20260831085023 | 81 | 191 | 4.3 | 8.7 | 0.00 | 0.00 | 0.00 | 43 | 1011.9 |
| 20260831084534 | 81 | 188 | 5.2 | 10.4 | 0.00 | 0.00 | 0.00 | 43 | 1011.9 |
| 20260831084021 | 82 | 178 | 4.3 | 10.4 | 0.00 | 0.00 | 0.00 | 42 | 1011.9 |
| 20260831083521 | 82 | 191 | 4.3 | 9.6 | 0.00 | 0.00 | 0.00 | 42 | 1012.0 |
| 20260831083036 | 82 | 195 | 4.3 | 9.6 | 0.00 | 0.00 | 0.00 | 42 | 1012.0 |
| 20260831082521 | 82 | 187 | 6.1 | 9.6 | 0.00 | 0.00 | 0.00 | 41 | 1011.9 |
| 20260831082020 | 82 | 198 | 4.3 | 9.6 | 0.00 | 0.00 | 0.00 | 41 | 1011.9 |
| 20260831081522 | 82 | 190 | 5.2 | 9.6 | 0.00 | 0.00 | 0.00 | 41 | 1011.8 |
| 20260831081024 | 82 | 196 | 4.3 | 9.6 | 0.00 | 0.00 | 0.00 | 41 | 1011.8 |
| 20260831080521 | 82 | 182 | 4.3 | 8.7 | 0.00 | 0.00 | 0.00 | 41 | 1011.7 |
| 20260831080027 | 82 | 189 | 4.3 | 7.8 | 0.00 | 0.00 | 0.00 | 41 | 1011.8 |
| 20260831075019 | 81 | 183 | 4.3 | 7.8 | 0.00 | 0.00 | 0.00 | 41 | 1012.0 |
| 20260831074520 | 81 | 198 | 3.5 | 7.8 | 0.00 | 0.00 | 0.00 | 41 | 1012.0 |
| 20260831074022 | 81 | 192 | 2.6 | 5.2 | 0.00 | 0.00 | 0.00 | 41 | 1012.1 |
| 20260831073520 | 81 | 172 | 2.6 | 3.5 | 0.00 | 0.00 | 0.00 | 40 | 1012.1 |
| 20260831073020 | 81 | 175 | 1.7 | 4.3 | 0.00 | 0.00 | 0.00 | 40 | 1012.1 |
| 20260831072518 | 81 | 175 | 2.6 | 5.2 | 0.00 | 0.00 | 0.00 | 40 | 1012.1 |
| 20260831072018 | 81 | 175 | 2.6 | 5.2 | 0.00 | 0.00 | 0.00 | 39 | 1011.9 |
| 20260831071516 | 81 | 180 | 2.6 | 4.3 | 0.00 | 0.00 | 0.00 | 39 | 1012.0 |
| 20260831071016 | 82 | 179 | 1.7 | 3.5 | 0.00 | 0.00 | 0.00 | 39 | 1011.9 |
| 20260831070515 | 82 | 179 | 1.7 | 4.3 | 0.00 | 0.00 | 0.00 | 38 | 1012.0 |
| 20260831070016 | 82 | 179 | 1.7 | 4.3 | 0.00 | 0.00 | 0.00 | 38 | 1011.9 |
| 20260831065016 | 82 | 177 | 1.7 | 4.3 | 0.00 | 0.00 | 0.00 | 38 | 1012.0 |
| 20260831064516 | 82 | 177 | 1.7 | 4.3 | 0.00 | 0.00 | 0.00 | 38 | 1012.0 |
| 20260831064015 | 82 | 173 | 1.7 | 3.5 | 0.00 | 0.00 | 0.00 | 38 | 1012.0 |
| 20260831063513 | 82 | 173 | 0.9 | 3.5 | 0.00 | 0.00 | 0.00 | 37 | 1012.0 |
| 20260831063013 | 82 | 173 | 1.7 | 3.5 | 0.00 | 0.00 | 0.00 | 37 | 1012.0 |
| 20260831062512 | 82 | 173 | 0.9 | 2.6 | 0.00 | 0.00 | 0.00 | 37 | 1012.0 |
| 20260831062012 | 83 | 173 | 0.9 | 3.5 | 0.00 | 0.00 | 0.00 | 37 | 1012.0 |
| 20260831061511 | 83 | 173 | 1.7 | 3.5 | 0.00 | 0.00 | 0.00 | 36 | 1011.9 |
| 20260831061011 | 83 | 173 | 1.7 | 3.5 | 0.00 | 0.00 | 0.00 | 36 | 1012.0 |
| 20260831060510 | 83 | 172 | 1.7 | 3.5 | 0.00 | 0.00 | 0.00 | 36 | 1012.0 |
| 20260831060009 | 84 | 165 | 0.9 | 3.5 | 0.00 | 0.00 | 0.00 | 35 | 1011.8 |
| 20260831055008 | 84 | 165 | 0.9 | 3.5 | 0.00 | 0.00 | 0.00 | 35 | 1011.8 |
| 20260831054508 | 84 | 164 | 0.9 | 3.5 | 0.00 | 0.00 | 0.00 | 35 | 1011.8 |
| 20260831054007 | 84 | 164 | 1.7 | 3.5 | 0.00 | 0.00 | 0.00 | 34 | 1011.8 |
| 20260831053507 | 84 | 164 | 1.7 | 4.3 | 0.00 | 0.00 | 0.00 | 34 | 1011.8 |
| 20260831053007 | 84 | 160 | 2.6 | 4.3 | 0.00 | 0.00 | 0.00 | 34 | 1011.9 |
| 20260831052506 | 85 | 163 | 2.6 | 4.3 | 0.00 | 0.00 | 0.00 | 34 | 1011.9 |
| 20260831052007 | 85 | 162 | 1.7 | 4.3 | 0.00 | 0.00 | 0.00 | 33 | 1011.8 |
| 20260831051508 | 85 | 169 | 1.7 | 4.3 | 0.00 | 0.00 | 0.00 | 33 | 1011.8 |
| 20260831051004 | 85 | 169 | 1.7 | 5.2 | 0.00 | 0.00 | 0.00 | 32 | 1011.8 |
| 20260831050501 | 86 | 171 | 1.7 | 5.2 | 0.00 | 0.00 | 0.00 | 32 | 1011.7 |
| 20260831050100 | 86 | 164 | 2.6 | 7.0 | 0.00 | 0.00 | 0.00 | 32 | 1011.7 |
| 20260831045001 | 87 | 195 | 4.3 | 10.4 | 0.00 | 0.00 | 0.00 | 31 | 1011.7 |
| 20260831044607 | 87 | 188 | 5.2 | 10.4 | 0.00 | 0.00 | 0.00 | 31 | 1011.7 |
| 20260831044101 | 87 | 199 | 5.2 | 8.7 | 0.00 | 0.00 | 0.00 | 30 | 1011.6 |
| 20260831043559 | 87 | 198 | 5.2 | 9.6 | 0.00 | 0.00 | 0.00 | 30 | 1011.6 |
| 20260831043100 | 87 | 206 | 6.1 | 9.6 | 0.00 | 0.00 | 0.00 | 30 | 1011.5 |
| 20260831042602 | 87 | 201 | 5.2 | 12.2 | 0.00 | 0.00 | 0.00 | 30 | 1011.4 |
| 20260831042059 | 88 | 200 | 7.0 | 12.2 | 0.00 | 0.00 | 0.00 | 30 | 1011.4 |
| 20260831041659 | 88 | 193 | 7.0 | 12.2 | 0.00 | 0.00 | 0.00 | 30 | 1011.3 |
| 20260831041100 | 88 | 191 | 6.1 | 12.2 | 0.00 | 0.00 | 0.00 | 29 | 1011.3 |
| 20260831040559 | 88 | 199 | 6.1 | 13.0 | 0.00 | 0.00 | 0.00 | 29 | 1011.2 |
| 20260831040059 | 88 | 222 | 6.1 | 10.4 | 0.00 | 0.00 | 0.00 | 29 | 1011.3 |
| 20260831035007 | 88 | 183 | 6.1 | 10.4 | 0.00 | 0.00 | 0.00 | 29 | 1011.2 |
| 20260831034507 | 88 | 185 | 4.3 | 8.7 | 0.00 | 0.00 | 0.00 | 29 | 1011.1 |
| 20260831034006 | 88 | 190 | 3.5 | 8.7 | 0.00 | 0.00 | 0.00 | 29 | 1011.1 |
| 20260831033506 | 88 | 200 | 4.3 | 7.8 | 0.00 | 0.00 | 0.00 | 29 | 1011.0 |
| 20260831033007 | 88 | 190 | 4.3 | 7.8 | 0.00 | 0.00 | 0.00 | 28 | 1010.9 |
| 20260831032507 | 88 | 187 | 3.5 | 7.8 | 0.00 | 0.00 | 0.00 | 28 | 1010.8 |
| 20260831032007 | 88 | 194 | 2.6 | 7.8 | 0.00 | 0.00 | 0.00 | 28 | 1010.8 |
| 20260831031515 | 89 | 189 | 3.5 | 7.8 | 0.00 | 0.00 | 0.00 | 28 | 1010.8 |
| 20260831031006 | 89 | 196 | 2.6 | 7.0 | 0.00 | 0.00 | 0.00 | 28 | 1010.7 |
| 20260831030507 | 89 | 175 | 3.5 | 7.0 | 0.00 | 0.00 | 0.00 | 28 | 1010.6 |
| 20260831030006 | 89 | 191 | 2.6 | 7.0 | 0.00 | 0.00 | 0.00 | 28 | 1010.7 |
| 20260831025057 | 89 | 187 | 3.5 | 7.0 | 0.00 | 0.00 | 0.00 | 28 | 1010.6 |
| 20260831024604 | 89 | 191 | 2.6 | 5.2 | 0.00 | 0.00 | 0.00 | 28 | 1010.5 |
| 20260831024058 | 89 | 191 | 2.6 | 5.2 | 0.00 | 0.00 | 0.00 | 27 | 1010.4 |
| 20260831023557 | 90 | 194 | 2.6 | 5.2 | 0.00 | 0.00 | 0.00 | 27 | 1010.3 |
| 20260831023057 | 90 | 193 | 2.6 | 7.0 | 0.00 | 0.00 | 0.00 | 27 | 1010.0 |
| 20260831022556 | 90 | 187 | 3.5 | 8.7 | 0.00 | 0.00 | 0.00 | 27 | 1009.9 |
| 20260831022057 | 91 | 196 | 4.3 | 8.7 | 0.00 | 0.00 | 0.00 | 26 | 1010.0 |
| 20260831021602 | 91 | 191 | 3.5 | 7.8 | 0.00 | 0.00 | 0.00 | 26 | 1009.9 |
| 20260831021056 | 91 | 197 | 4.3 | 9.6 | 0.00 | 0.00 | 0.00 | 26 | 1009.8 |
| 20260831020556 | 91 | 188 | 6.1 | 9.6 | 0.00 | 0.00 | 0.00 | 25 | 1009.8 |
| 20260831020156 | 91 | 212 | 5.2 | 9.6 | 0.00 | 0.00 | 0.00 | 25 | 1009.7 |
| 20260831015058 | 92 | 191 | 4.3 | 8.7 | 0.00 | 0.00 | 0.00 | 25 | 1009.6 |
| 20260831014612 | 92 | 180 | 4.3 | 9.6 | 0.00 | 0.00 | 0.00 | 24 | 1009.6 |
| 20260831014058 | 92 | 184 | 4.3 | 9.6 | 0.00 | 0.00 | 0.00 | 24 | 1009.5 |
| 20260831013558 | 92 | 193 | 4.3 | 7.8 | 0.00 | 0.00 | 0.00 | 24 | 1009.5 |
| 20260831013059 | 93 | 190 | 3.5 | 11.3 | 0.00 | 0.00 | 0.00 | 23 | 1009.6 |
| 20260831012558 | 93 | 200 | 6.1 | 11.3 | 0.00 | 0.00 | 0.00 | 23 | 1009.5 |
| 20260831012059 | 93 | 193 | 4.3 | 9.6 | 0.00 | 0.00 | 0.00 | 23 | 1009.5 |
| 20260831011613 | 94 | 200 | 4.3 | 13.0 | 0.00 | 0.00 | 0.00 | 22 | 1009.4 |
| 20260831011057 | 94 | 176 | 7.8 | 13.0 | 0.00 | 0.00 | 0.00 | 22 | 1009.4 |
| 20260831010557 | 94 | 196 | 6.1 | 10.4 | 0.00 | 0.00 | 0.00 | 22 | 1009.4 |
| 20260831010058 | 94 | 184 | 4.3 | 10.4 | 0.00 | 0.00 | 0.00 | 22 | 1009.3 |
| 20260831005058 | 95 | 164 | 5.2 | 13.9 | 0.00 | 0.00 | 0.00 | 21 | 1009.2 |
| 20260831004558 | 95 | 183 | 6.1 | 13.9 | 0.00 | 0.00 | 0.00 | 21 | 1009.2 |
| 20260831004158 | 95 | 198 | 6.1 | 11.3 | 0.00 | 0.00 | 0.00 | 21 | 1009.1 |
| 20260831003557 | 95 | 203 | 7.0 | 12.2 | 0.00 | 0.00 | 0.00 | 22 | 1009.1 |
| 20260831003057 | 96 | 153 | 6.1 | 12.2 | 0.00 | 0.00 | 0.00 | 22 | 1009.1 |
| 20260831002600 | 96 | 159 | 5.2 | 12.2 | 0.00 | 0.00 | 0.00 | 22 | 1009.0 |
| 20260831002059 | 96 | 187 | 6.1 | 13.0 | 0.00 | 0.00 | 0.00 | 22 | 1009.0 |
| 20260831001604 | 96 | 164 | 5.2 | 12.2 | 0.00 | 0.00 | 0.00 | 22 | 1008.9 |
| 20260831001059 | 96 | 200 | 7.0 | 11.3 | 0.00 | 0.00 | 0.00 | 21 | 1008.9 |
| 20260831000557 | 97 | 191 | 4.3 | 10.4 | 0.00 | 0.00 | 0.00 | 19 | 1008.9 |
| 20260830235054 | 97 | 199 | 4.3 | 12.2 | 0.00 | 0.00 | 0.00 | 20 | 1008.9 |
| 20260830234553 | 97 | 187 | 5.2 | 11.3 | 0.00 | 0.00 | 0.00 | 20 | 1008.9 |
| 20260830234053 | 97 | 201 | 7.0 | 11.3 | 0.00 | 0.00 | 0.00 | 20 | 1008.9 |
| 20260830233553 | 97 | 214 | 5.2 | 11.3 | 0.00 | 0.00 | 0.00 | 20 | 1009.0 |
| 20260830233103 | 97 | 171 | 7.0 | 11.3 | 0.00 | 0.00 | 0.00 | 20 | 1009.0 |
| 20260830232556 | 97 | 193 | 7.0 | 13.9 | 0.00 | 0.00 | 0.00 | 21 | 1008.9 |
| 20260830232053 | 97 | 219 | 8.7 | 13.9 | 0.00 | 0.00 | 0.00 | 21 | 1009.0 |
| 20260830231558 | 98 | 198 | 8.7 | 13.0 | 0.00 | 0.00 | 0.00 | 21 | 1008.9 |
| 20260830231052 | 97 | 191 | 6.1 | 16.5 | 0.00 | 0.00 | 0.00 | 21 | 1009.0 |
| 20260830230552 | 97 | 190 | 10.4 | 16.5 | 0.00 | 0.00 | 0.00 | 21 | 1009.0 |
| 20260830230053 | 97 | 193 | 8.7 | 14.8 | 0.00 | 0.00 | 0.00 | 21 | 1008.9 |
| 20260830225056 | 98 | 191 | 6.1 | 11.3 | 0.00 | 0.00 | 0.00 | 20 | 1008.9 |
| 20260830224616 | 98 | 200 | 5.2 | 8.7 | 0.00 | 0.00 | 0.00 | 20 | 1008.9 |
| 20260830224056 | 98 | 210 | 6.1 | 10.4 | 0.00 | 0.00 | 0.00 | 19 | 1009.0 |
| 20260830223555 | 98 | 170 | 7.0 | 10.4 | 0.00 | 0.00 | 0.00 | 20 | 1009.0 |
| 20260830223057 | 98 | 154 | 5.2 | 13.0 | 0.00 | 0.00 | 0.00 | 19 | 1009.0 |
| 20260830222559 | 98 | 202 | 7.0 | 13.0 | 0.00 | 0.00 | 0.00 | 19 | 1009.0 |
| 20260830222054 | 98 | 165 | 7.8 | 12.2 | 0.00 | 0.00 | 0.00 | 19 | 1009.1 |
| 20260830221602 | 98 | 233 | 4.3 | 8.7 | 0.00 | 0.00 | 0.00 | 18 | 1009.2 |
| 20260830221053 | 98 | 258 | 5.2 | 11.3 | 0.00 | 0.00 | 0.00 | 17 | 1009.2 |
| 20260830220553 | 98 | 179 | 5.2 | 13.0 | 0.00 | 0.00 | 0.00 | 18 | 1009.3 |
| 20260830220057 | 98 | 213 | 9.6 | 13.0 | 0.00 | 0.00 | 0.00 | 17 | 1009.3 |
| 20260830215051 | 97 | 177 | 6.1 | 12.2 | 0.00 | 0.00 | 0.00 | 18 | 1009.4 |
| 20260830214556 | 98 | 152 | 7.0 | 12.2 | 0.00 | 0.00 | 0.00 | 18 | 1009.5 |
| 20260830214050 | 98 | 152 | 3.5 | 12.2 | 0.00 | 0.00 | 0.00 | 18 | 1009.4 |
| 20260830213549 | 98 | 192 | 7.8 | 15.6 | 0.00 | 0.00 | 0.00 | 18 | 1009.5 |
| 20260830213049 | 98 | 185 | 8.7 | 15.6 | 0.00 | 0.00 | 0.00 | 18 | 1009.7 |
| 20260830212548 | 98 | 181 | 4.3 | 12.2 | 0.00 | 0.00 | 0.00 | 18 | 1009.7 |
| 20260830212051 | 98 | 203 | 6.1 | 13.0 | 0.00 | 0.00 | 0.00 | 19 | 1009.8 |
| 20260830211547 | 97 | 150 | 5.2 | 13.0 | 0.00 | 0.00 | 0.00 | 18 | 1009.9 |
| 20260830211049 | 97 | 190 | 6.1 | 13.0 | 0.00 | 0.00 | 0.00 | 19 | 1009.8 |
| 20260830210546 | 97 | 174 | 7.8 | 14.8 | 0.00 | 0.00 | 0.00 | 18 | 1010.0 |
| 20260830210044 | 97 | 180 | 8.7 | 14.8 | 0.00 | 0.00 | 0.00 | 20 | 1010.0 |
| 20260830205049 | 96 | 164 | 6.1 | 16.5 | 0.00 | 0.00 | 0.00 | 20 | 1010.3 |
| 20260830204546 | 96 | 226 | 7.0 | 16.5 | 0.00 | 0.00 | 0.00 | 21 | 1010.3 |
| 20260830204047 | 97 | 215 | 6.1 | 10.4 | 0.00 | 0.00 | 0.00 | 22 | 1010.4 |
| 20260830203544 | 97 | 191 | 5.2 | 13.0 | 0.00 | 0.00 | 0.00 | 21 | 1010.5 |
| 20260830203043 | 97 | 178 | 6.1 | 15.6 | 0.00 | 0.00 | 0.00 | 20 | 1010.7 |
| 20260830202543 | 97 | 196 | 7.8 | 15.6 | 0.00 | 0.00 | 0.00 | 21 | 1010.8 |
| 20260830202041 | 97 | 154 | 6.1 | 12.2 | 0.00 | 0.00 | 0.00 | 20 | 1010.8 |
| 20260830201542 | 97 | 177 | 5.2 | 12.2 | 0.00 | 0.00 | 0.00 | 19 | 1011.0 |
| 20260830201039 | 96 | 252 | 4.3 | 14.8 | 0.00 | 0.00 | 0.00 | 20 | 1011.0 |
| 20260830200541 | 96 | 216 | 8.7 | 16.5 | 0.00 | 0.00 | 0.00 | 20 | 1011.2 |
| 20260830200038 | 96 | 198 | 6.1 | 16.5 | 0.00 | 0.00 | 0.00 | 22 | 1011.1 |
| 20260830195053 | 96 | 173 | 6.1 | 13.0 | 0.00 | 0.00 | 0.00 | 22 | 1011.4 |
| 20260830194549 | 95 | 164 | 7.0 | 13.0 | 0.00 | 0.00 | 0.00 | 21 | 1011.4 |
| 20260830194051 | 95 | 202 | 7.0 | 13.9 | 0.00 | 0.00 | 0.00 | 22 | 1011.5 |
| 20260830193546 | 95 | 189 | 7.8 | 13.9 | 0.00 | 0.00 | 0.00 | 23 | 1011.6 |
| 20260830193043 | 95 | 201 | 5.2 | 13.0 | 0.00 | 0.00 | 0.00 | 24 | 1011.7 |
| 20260830192542 | 94 | 198 | 2.6 | 13.0 | 0.00 | 0.00 | 0.00 | 25 | 1011.8 |
| 20260830192040 | 94 | 208 | 8.7 | 14.8 | 0.00 | 0.00 | 0.00 | 25 | 1011.8 |
| 20260830191540 | 94 | 213 | 7.8 | 14.8 | 0.00 | 0.00 | 0.00 | 24 | 1011.8 |
| 20260830191039 | 94 | 239 | 7.0 | 13.0 | 0.00 | 0.00 | 0.00 | 26 | 1011.8 |
| 20260830190538 | 94 | 231 | 6.1 | 13.9 | 0.00 | 0.00 | 0.00 | 25 | 1012.0 |
| 20260830190037 | 94 | 271 | 7.0 | 16.5 | 0.00 | 0.00 | 0.00 | 27 | 1011.9 |
| 20260830185024 | 93 | 214 | 6.1 | 13.0 | 0.00 | 0.00 | 0.00 | 28 | 1012.0 |
| 20260830184524 | 93 | 212 | 7.0 | 14.8 | 0.00 | 0.00 | 0.00 | 28 | 1012.1 |
| 20260830184023 | 93 | 227 | 9.6 | 15.6 | 0.00 | 0.00 | 0.00 | 28 | 1012.1 |
| 20260830183522 | 93 | 185 | 9.6 | 15.6 | 0.00 | 0.00 | 0.00 | 29 | 1012.1 |
| 20260830183020 | 92 | 225 | 6.1 | 13.9 | 0.00 | 0.00 | 0.00 | 30 | 1012.2 |
| 20260830182519 | 92 | 210 | 9.6 | 14.8 | 0.00 | 0.00 | 0.00 | 30 | 1012.5 |
| 20260830182018 | 92 | 214 | 9.6 | 15.6 | 0.00 | 0.00 | 0.00 | 31 | 1012.5 |
| 20260830181516 | 92 | 217 | 7.0 | 15.6 | 0.00 | 0.00 | 0.00 | 31 | 1012.6 |
| 20260830181015 | 92 | 196 | 7.0 | 16.5 | 0.00 | 0.00 | 0.00 | 30 | 1012.7 |
| 20260830180513 | 92 | 207 | 8.7 | 16.5 | 0.00 | 0.00 | 0.00 | 31 | 1012.9 |
| 20260830180013 | 92 | 223 | 8.7 | 14.8 | 0.00 | 0.00 | 0.00 | 30 | 1012.9 |
| 20260830175009 | 92 | 218 | 7.0 | 14.8 | 0.00 | 0.00 | 0.00 | 33 | 1013.0 |
| 20260830174510 | 91 | 210 | 9.6 | 14.8 | 0.00 | 0.00 | 0.00 | 34 | 1013.0 |
| 20260830174006 | 91 | 177 | 8.7 | 15.6 | 0.00 | 0.00 | 0.00 | 34 | 1013.1 |
| 20260830173506 | 91 | 205 | 8.7 | 16.5 | 0.00 | 0.00 | 0.00 | 34 | 1013.1 |
| 20260830173005 | 90 | 186 | 7.8 | 13.9 | 0.00 | 0.00 | 0.00 | 35 | 1013.2 |
| 20260830172509 | 90 | 207 | 8.7 | 16.5 | 0.00 | 0.00 | 0.00 | 35 | 1013.2 |
| 20260830172004 | 90 | 179 | 9.6 | 16.5 | 0.00 | 0.00 | 0.00 | 35 | 1013.3 |
| 20260830171504 | 90 | 194 | 7.8 | 13.9 | 0.00 | 0.00 | 0.00 | 36 | 1013.3 |
| 20260830171004 | 90 | 199 | 9.6 | 13.9 | 0.00 | 0.00 | 0.00 | 36 | 1013.5 |
| 20260830170502 | 89 | 186 | 7.8 | 13.9 | 0.00 | 0.00 | 0.00 | 36 | 1013.4 |
| 20260830170002 | 89 | 196 | 8.7 | 13.9 | 0.00 | 0.00 | 0.00 | 37 | 1013.4 |
| 20260830165159 | 88 | 205 | 9.6 | 14.8 | 0.00 | 0.00 | 0.00 | 38 | 1013.4 |
| 20260830164607 | 88 | 245 | 7.8 | 13.0 | 0.00 | 0.00 | 0.00 | 39 | 1013.4 |
| 20260830164057 | 88 | 208 | 7.0 | 15.6 | 0.00 | 0.00 | 0.00 | 40 | 1013.6 |
| 20260830163558 | 88 | 175 | 7.8 | 15.6 | 0.00 | 0.00 | 0.00 | 40 | 1013.7 |
| 20260830163059 | 88 | 208 | 7.8 | 13.9 | 0.00 | 0.00 | 0.00 | 40 | 1013.6 |
| 20260830162556 | 88 | 171 | 7.8 | 13.9 | 0.00 | 0.00 | 0.00 | 41 | 1013.5 |
| 20260830162057 | 87 | 199 | 6.1 | 12.2 | 0.00 | 0.00 | 0.00 | 43 | 1013.6 |
| 20260830161606 | 87 | 202 | 7.0 | 12.2 | 0.00 | 0.00 | 0.00 | 43 | 1013.6 |
| 20260830161052 | 86 | 198 | 7.0 | 11.3 | 0.00 | 0.00 | 0.00 | 43 | 1013.6 |
| 20260830160553 | 86 | 179 | 7.0 | 13.9 | 0.00 | 0.00 | 0.00 | 45 | 1013.7 |
| 20260830160051 | 86 | 198 | 8.7 | 13.9 | 0.00 | 0.00 | 0.00 | 45 | 1013.7 |
| 20260830155059 | 85 | 182 | 3.5 | 13.0 | 0.00 | 0.00 | 0.00 | 47 | 1013.7 |
| 20260830154558 | 85 | 184 | 9.6 | 13.0 | 0.00 | 0.00 | 0.00 | 46 | 1013.7 |
| 20260830154059 | 85 | 195 | 6.1 | 10.4 | 0.00 | 0.00 | 0.00 | 47 | 1013.7 |
| 20260830153600 | 84 | 162 | 4.3 | 11.3 | 0.00 | 0.00 | 0.00 | 48 | 1013.7 |
| 20260830153053 | 84 | 179 | 7.8 | 11.3 | 0.00 | 0.00 | 0.00 | 48 | 1013.8 |
| 20260830152552 | 83 | 189 | 5.2 | 8.7 | 0.00 | 0.00 | 0.00 | 50 | 1013.7 |
| 20260830152056 | 83 | 191 | 4.3 | 10.4 | 0.00 | 0.00 | 0.00 | 51 | 1013.9 |
| 20260830151552 | 83 | 189 | 4.3 | 10.4 | 0.00 | 0.00 | 0.00 | 51 | 1013.9 |
| 20260830151052 | 82 | 155 | 4.3 | 9.6 | 0.00 | 0.00 | 0.00 | 52 | 1013.9 |
| 20260830150552 | 82 | 154 | 5.2 | 11.3 | 0.00 | 0.00 | 0.00 | 52 | 1013.9 |
| 20260830150055 | 81 | 201 | 6.1 | 11.3 | 0.00 | 0.00 | 0.00 | 53 | 1013.8 |
| 20260830145043 | 81 | 212 | 6.1 | 13.0 | 0.00 | 0.00 | 0.00 | 53 | 1014.0 |
| 20260830144543 | 81 | 186 | 7.0 | 13.0 | 0.00 | 0.00 | 0.00 | 54 | 1014.0 |
| 20260830144045 | 81 | 148 | 5.2 | 9.6 | 0.00 | 0.00 | 0.00 | 54 | 1014.0 |
| 20260830143542 | 80 | 179 | 4.3 | 10.4 | 0.00 | 0.00 | 0.00 | 55 | 1014.0 |
| 20260830143101 | 80 | 190 | 6.1 | 13.0 | 0.00 | 0.00 | 0.00 | 55 | 1014.0 |
| 20260830142542 | 80 | 198 | 6.1 | 12.2 | 0.00 | 0.00 | 0.00 | 55 | 1014.0 |